Location: Knowlton
(51.2333°N, 1.2667°E)
Time: 03:57:10
(UTC+00:00)

Cosmos 1825 - Pass Details

Date: 18 April 2021
Orbit: 502 x 506 km, 82.5° (Epoch: 06 May)

Event Time Altitude Azimuth Distance (km) Brightness Sun altitude
Rises 20:01:37 0° 348° (NNW) 2,618 6.5 -10.0°
Reaches altitude 10° 20:03:45 10° 348° (NNW) 1,729 5.5 -10.3°
Maximum altitude 20:07:32 81° 262° (W) 519 2.2 -10.8°
Drops below altitude 10° 20:11:18 10° 175° (S) 1,716 4.5 -11.3°
Enters shadow 20:12:03 - 174° (S) 2,029 4.8 -11.4°
